LiveATC.Net - Listen to live air traffic control over the Internet!
Airport/ARTCC Code
Frequency Search
(e.g., 124.400, 128.75)
Site-wide search
 


Browse Feeds
Top 50 Feeds
Coverage Map
Bad Weather Areas

LiveATC FAQ
Offer LiveATC feed
Contact LiveATC.net
Press Inquiries

LiveATC on iPhone
LiveATC on Android

Windows Phone
Windows 8/10

LiveATC Mobile
(Mobile browser)

ATC Audio Archives
Interesting Recordings

LiveATC Forums

Home Page
About LiveATC.net
Make a Donation
Terms of Use
Privacy Policy

Canadian Air Freqs

AIRMETs/SIGMETs

FAA Airport Status
Nat'l Airspace Status
Arrival Demand Charts


Server Software By:
Icecast.org
Liquidsoap

Select an area of interest:
U.S. Feeds: Class B Airports | Class C Airports | Class D/Other Airports | ARTCC (Centers)
International Feeds: Canada | Europe | Oceania | Asia | South America | North/Central America | Africa
Misc Feeds: HF Feeds
Search by ICAO/IATA airport code:   (e.g., kbos, kjfk, lax, eham, etc.)


Currently Available Live Feeds: 2704
Status Updated: Sun Jan 24 2021 19:01:04 UTC


NOTICE

Unauthorized use prohibited. See LiveATC.net Terms of Service

Asia Airport Feeds

 

OBBI Gnd/Twr/App (Archives)
Muharraq, Bahrain

Feed Status: UP
Listen in your browser - HTML5 player(in browser, HTML5)
Click here to listen with your own player(launches your MP3 player)

OBBI 241900Z 31007KT CAVOK 16/12 Q1022 NOSIG


Listeners: 4 out of 1429 total

Bahrain Arrival: 127.850
Bahrain Control (Low Central): 124.300
Bahrain Control (Low East): 125.700
Bahrain Control (Low North): 126.700
Bahrain Departure: 119.100
Bahrain Ground: 121.850
Bahrain Tower: 118.500

OKBK Gnd/Twr/App/Radar (Archives)
Kuwait City, Kuwait

Feed Status: UP
Listen in your browser - HTML5 player(in browser, HTML5)
Click here to listen with your own player(launches your MP3 player)

OKBK 241900Z 00000KT CAVOK 10/M02 Q1023 NOSIG


Listeners: 6 out of 1429 total

Kuwait Approach: 121.300
Kuwait Approach: 124.800
Kuwait Ground: 121.700
Kuwait Radar (Center): 125.300
Kuwait Tower: 118.300

OPKC Gnd/Twr/Radar (Archives)
Karachi, Pakistan

Feed Status: UP
Listen in your browser - HTML5 player(in browser, HTML5)
Click here to listen with your own player(launches your MP3 player)

OPKC 241855Z 04005KT 5000 HZ NSC 13/M06 Q1018 NOSIG


Listeners: 5 out of 1429 total

Karachi Ground: 121.600
Karachi Radar: 125.500
Karachi Tower: 118.300

RCTP Approach (Archives)
Taipei, Taiwan

Feed Status: UP
Listen in your browser - HTML5 player(in browser, HTML5)
Click here to listen with your own player(launches your MP3 player)

RCTP 241830Z 03007KT 9999 FEW012 BKN070 17/13 Q1019 NOSIG RMK A3009

RCTP Flight Activity (Flightaware)

Listeners: 1 out of 1429 total

Emergency/Guard: 121.500
Taipei Approach: 125.100
Taipei Approach: 125.600
Taipei Approach: 128.500

RCTP Tower (Archives)
Taipei, Taiwan

Feed Status: UP
Listen in your browser - HTML5 player(in browser, HTML5)
Click here to listen with your own player(launches your MP3 player)

RCTP 241830Z 03007KT 9999 FEW012 BKN070 17/13 Q1019 NOSIG RMK A3009

RCTP Flight Activity (Flightaware)

Listeners: 0 out of 1429 total

Taipei Tower: 118.700

RJAA Approach
Tokyo, Japan

Feed Status: DOWN
Offline since: 2021-01-24 15:15:40 UTC

RJAA 241830Z 33009KT 9999 FEW015 BKN080 BKN100 04/03 Q1021 NOSIG

Tokyo Approach: 124.400
Tokyo Approach: 127.700

RJAA ATIS
Tokyo, Japan

Feed Status: DOWN
Offline since: 2021-01-24 15:15:40 UTC

RJAA 241830Z 33009KT 9999 FEW015 BKN080 BKN100 04/03 Q1021 NOSIG

Narita ATIS: 128.250

RJAA Clearance Delivery
Tokyo, Japan

Feed Status: DOWN
Offline since: 2021-01-24 15:15:40 UTC

RJAA 241830Z 33009KT 9999 FEW015 BKN080 BKN100 04/03 Q1021 NOSIG

Narita Clearance Delivery (Asia/Pacific): 121.650
Narita Clearance Delivery (US/Europe): 121.900

RJAA Clearance Delivery #1
Tokyo, Japan

Feed Status: DOWN
Offline since: 2021-01-24 15:15:40 UTC

RJAA 241830Z 33009KT 9999 FEW015 BKN080 BKN100 04/03 Q1021 NOSIG

Narita Clearance Delivery (Asia/Pacific): 121.650

RJAA Clearance Delivery #2
Tokyo, Japan

Feed Status: DOWN
Offline since: 2021-01-24 15:15:40 UTC

RJAA 241830Z 33009KT 9999 FEW015 BKN080 BKN100 04/03 Q1021 NOSIG

Narita Clearance Delivery (US/Europe): 121.900

RJAA Company Channels
Tokyo, Japan

Feed Status: DOWN
Offline since: 2021-01-24 15:15:40 UTC

RJAA 241830Z 33009KT 9999 FEW015 BKN080 BKN100 04/03 Q1021 NOSIG

Ops: 130.450
Ops: 130.550
Ops: 130.900
Ops: 131.025
Ops: 131.100
Ops: 131.200
Ops: 131.700
Ops: 131.750

RJAA Departure
Tokyo, Japan

Feed Status: DOWN
Offline since: 2021-01-24 15:15:40 UTC

RJAA 241830Z 33009KT 9999 FEW015 BKN080 BKN100 04/03 Q1021 NOSIG

Tokyo Departure: 119.600
Tokyo Departure: 124.200

RJAA Departure #1
Tokyo, Japan

Feed Status: DOWN
Offline since: 2021-01-24 15:15:40 UTC

RJAA 241830Z 33009KT 9999 FEW015 BKN080 BKN100 04/03 Q1021 NOSIG

Tokyo Departure: 124.200

RJAA Departure #2
Tokyo, Japan

Feed Status: DOWN
Offline since: 2021-01-24 15:15:40 UTC

RJAA 241830Z 33009KT 9999 FEW015 BKN080 BKN100 04/03 Q1021 NOSIG

Tokyo Departure: 119.600

RJAA Emergency/Guard
Tokyo, Japan

Feed Status: DOWN
Offline since: 2021-01-24 15:15:40 UTC

RJAA 241830Z 33009KT 9999 FEW015 BKN080 BKN100 04/03 Q1021 NOSIG

Emergency/Guard: 121.500

RJAA Ground #1
Tokyo, Japan

Feed Status: DOWN
Offline since: 2021-01-24 15:15:40 UTC

RJAA 241830Z 33009KT 9999 FEW015 BKN080 BKN100 04/03 Q1021 NOSIG

Narita Ground: 121.850

RJAA Ground #2
Tokyo, Japan

Feed Status: DOWN
Offline since: 2021-01-24 15:15:40 UTC

RJAA 241830Z 33009KT 9999 FEW015 BKN080 BKN100 04/03 Q1021 NOSIG

Narita Ground: 121.950

RJAA Radar 119.025
Tokyo, Japan

Feed Status: DOWN
Offline since: 2021-01-24 15:15:40 UTC

RJAA 241830Z 33009KT 9999 FEW015 BKN080 BKN100 04/03 Q1021 NOSIG

Tokyo Radar: 119.025

RJAA Radar 120.2
Tokyo, Japan

Feed Status: DOWN
Offline since: 2021-01-24 15:15:40 UTC

RJAA 241830Z 33009KT 9999 FEW015 BKN080 BKN100 04/03 Q1021 NOSIG

Tokyo Radar: 120.200

RJAA Radar 120.6
Tokyo, Japan

Feed Status: DOWN
Offline since: 2021-01-24 15:15:40 UTC

RJAA 241830Z 33009KT 9999 FEW015 BKN080 BKN100 04/03 Q1021 NOSIG

Tokyo Radar: 120.600

RJAA Radar 132.1
Tokyo, Japan

Feed Status: DOWN
Offline since: 2021-01-24 15:15:40 UTC

RJAA 241830Z 33009KT 9999 FEW015 BKN080 BKN100 04/03 Q1021 NOSIG

Tokyo Radar: 132.100

RJAA Radar 133.35
Tokyo, Japan

Feed Status: DOWN
Offline since: 2021-01-24 15:15:40 UTC

RJAA 241830Z 33009KT 9999 FEW015 BKN080 BKN100 04/03 Q1021 NOSIG

Tokyo Radar: 133.350

RJAA Ramp #1
Tokyo, Japan

Feed Status: DOWN
Offline since: 2021-01-24 15:15:40 UTC

RJAA 241830Z 33009KT 9999 FEW015 BKN080 BKN100 04/03 Q1021 NOSIG

Narita Ramp: 121.600

RJAA Ramp #2
Tokyo, Japan

Feed Status: DOWN
Offline since: 2021-01-24 15:15:40 UTC

RJAA 241830Z 33009KT 9999 FEW015 BKN080 BKN100 04/03 Q1021 NOSIG

Narita Ramp: 121.750

RJAA TCA
Tokyo, Japan

Feed Status: DOWN
Offline since: 2021-01-24 15:15:40 UTC

RJAA 241830Z 33009KT 9999 FEW015 BKN080 BKN100 04/03 Q1021 NOSIG

Tokyo TCA (Terminal Control Area): 119.450

RJAA Tokyo Control
Tokyo, Japan

Feed Status: DOWN
Offline since: 2021-01-24 15:15:40 UTC

RJAA 241830Z 33009KT 9999 FEW015 BKN080 BKN100 04/03 Q1021 NOSIG

Tokyo Control: 125.900

RJAA Tower #1
Tokyo, Japan

Feed Status: DOWN
Offline since: 2021-01-24 15:15:40 UTC

RJAA 241830Z 33009KT 9999 FEW015 BKN080 BKN100 04/03 Q1021 NOSIG

Narita Tower (Rwy 16R/34L): 118.200

RJAA Tower #2
Tokyo, Japan

Feed Status: DOWN
Offline since: 2021-01-24 15:15:40 UTC

RJAA 241830Z 33009KT 9999 FEW015 BKN080 BKN100 04/03 Q1021 NOSIG

Narita Tower (Rwy 16L/34R): 118.350

RJAA Tower (Both)
Tokyo, Japan

Feed Status: DOWN
Offline since: 2021-01-24 15:15:40 UTC

RJAA 241830Z 33009KT 9999 FEW015 BKN080 BKN100 04/03 Q1021 NOSIG

Narita Tower (Rwy 16L/34R): 118.350
Narita Tower (Rwy 16R/34L): 118.200

RJFF Approach (119.65) (Archives)
Fukuoka, Japan

Feed Status: UP
Listen in your browser - HTML5 player(in browser, HTML5)
Click here to listen with your own player(launches your MP3 player)

RJFF 241830Z AUTO 02005KT 350V050 9999 NSC 06/03 Q1025 NOSIG

RJFF Flight Activity (Flightaware)

Listeners: 1 out of 1429 total

Fukuoka Approach: 119.650

RJFF Clearance Delivery (Archives)
Fukuoka, Japan

Feed Status: UP
Listen in your browser - HTML5 player(in browser, HTML5)
Click here to listen with your own player(launches your MP3 player)

RJFF 241830Z AUTO 02005KT 350V050 9999 NSC 06/03 Q1025 NOSIG

RJFF Flight Activity (Flightaware)

Listeners: 0 out of 1429 total

Fukuoka Clearance Delivery: 121.925

RJFF Ground (Archives)
Fukuoka, Japan

Feed Status: UP
Listen in your browser - HTML5 player(in browser, HTML5)
Click here to listen with your own player(launches your MP3 player)

RJFF 241830Z AUTO 02005KT 350V050 9999 NSC 06/03 Q1025 NOSIG

RJFF Flight Activity (Flightaware)

Listeners: 0 out of 1429 total

Fukuoka Ground: 121.700

RJFF Radar (119.7) (Archives)
Fukuoka, Japan

Feed Status: UP
Listen in your browser - HTML5 player(in browser, HTML5)
Click here to listen with your own player(launches your MP3 player)

RJFF 241830Z AUTO 02005KT 350V050 9999 NSC 06/03 Q1025 NOSIG

RJFF Flight Activity (Flightaware)

Listeners: 1 out of 1429 total

Fukuoka Radar: 119.700

RJFF Radar (121.25) (Archives)
Fukuoka, Japan

Feed Status: UP
Listen in your browser - HTML5 player(in browser, HTML5)
Click here to listen with your own player(launches your MP3 player)

RJFF 241830Z AUTO 02005KT 350V050 9999 NSC 06/03 Q1025 NOSIG

RJFF Flight Activity (Flightaware)

Listeners: 1 out of 1429 total

Fukuoka Radar: 121.125

RJFF TCA (Archives)
Fukuoka, Japan

Feed Status: UP
Listen in your browser - HTML5 player(in browser, HTML5)
Click here to listen with your own player(launches your MP3 player)

RJFF 241830Z AUTO 02005KT 350V050 9999 NSC 06/03 Q1025 NOSIG

RJFF Flight Activity (Flightaware)

Listeners: 0 out of 1429 total

Fukuoka Terminal Control Area: 121.275

RJOO Tower (Archives)
Osaka, Japan

Feed Status: UP
Listen in your browser - HTML5 player(in browser, HTML5)
Click here to listen with your own player(launches your MP3 player)

RJOO 241100Z 32007KT 9999 FEW010 SCT025 BKN045 08/07 Q1022

RJOO Flight Activity (Flightaware)

Listeners: 1 out of 1429 total

Osaka Tower: 118.100

RJSF RDO (Archives)
Sukagawa, Japan

Feed Status: UP
Listen in your browser - HTML5 player(in browser, HTML5)
Click here to listen with your own player(launches your MP3 player)

RJSF 241100Z 35010KT 9999 FEW005 BKN006 01/01 Q1022

RJSF Flight Activity (Flightaware)

Listeners: 2 out of 1429 total

Fukushima Radio: 118.050

RJTT App/Dep (Archives)
Tokyo, Japan

Feed Status: UP
Listen in your browser - HTML5 player(in browser, HTML5)
Click here to listen with your own player(launches your MP3 player)

RJTT 241830Z 36012KT 9999 -RA FEW010 SCT060 BKN120 07/04 Q1022 NOSIG

RJTT Flight Activity (Flightaware)

Listeners: 15 out of 1429 total

Tokyo Approach: 119.100
Tokyo Approach: 119.400
Tokyo Departure: 120.800
Tokyo Departure: 126.000

RJTT Approach (Archives)
Tokyo, Japan

Feed Status: UP
Listen in your browser - HTML5 player(in browser, HTML5)
Click here to listen with your own player(launches your MP3 player)

RJTT 241830Z 36012KT 9999 -RA FEW010 SCT060 BKN120 07/04 Q1022 NOSIG

RJTT Flight Activity (Flightaware)

Listeners: 2 out of 1429 total

Tokyo Approach: 119.100
Tokyo Approach: 119.400

RJTT ATIS (Archives)
Tokyo, Japan

Feed Status: UP
Listen in your browser - HTML5 player(in browser, HTML5)
Click here to listen with your own player(launches your MP3 player)

RJTT 241830Z 36012KT 9999 -RA FEW010 SCT060 BKN120 07/04 Q1022 NOSIG

RJTT Flight Activity (Flightaware)

Listeners: 1 out of 1429 total

Tokyo ATIS: 128.800

RJTT Company Channels (Archives)
Tokyo, Japan

Feed Status: UP
Listen in your browser - HTML5 player(in browser, HTML5)
Click here to listen with your own player(launches your MP3 player)

RJTT 241830Z 36012KT 9999 -RA FEW010 SCT060 BKN120 07/04 Q1022 NOSIG

RJTT Flight Activity (Flightaware)

Listeners: 4 out of 1429 total

Company TBD: 128.500
Company TBD: 131.850
Company TBD: 129.725
Company TBD: 129.700
Company TBD: 131.900
Company TBD: 129.850
Company TBD: 128.975
Company TBD: 123.675
Company TBD: 132.075

RJTT Del/Ground (Archives)
Tokyo, Japan

Feed Status: UP
Listen in your browser - HTML5 player(in browser, HTML5)
Click here to listen with your own player(launches your MP3 player)

RJTT 241830Z 36012KT 9999 -RA FEW010 SCT060 BKN120 07/04 Q1022 NOSIG

RJTT Flight Activity (Flightaware)

Listeners: 0 out of 1429 total

Tokyo Clearance Delivery: 121.825
Tokyo Ground: 121.700
Tokyo Ground: 118.225
Tokyo Ground: 121.625
Tokyo Ground: 121.975

RJTT Del/Twr/TCA/Gnd (Archives)
Tokyo, Japan

Feed Status: UP
Listen in your browser - HTML5 player(in browser, HTML5)
Click here to listen with your own player(launches your MP3 player)

RJTT 241830Z 36012KT 9999 -RA FEW010 SCT060 BKN120 07/04 Q1022 NOSIG

RJTT Flight Activity (Flightaware)

Listeners: 8 out of 1429 total

Tokyo Clearance Delivery: 121.825
Tokyo Ground: 121.975
Tokyo Ground: 121.625
Tokyo Ground: 121.700
Tokyo Ground: 118.225
Tokyo TCA: 124.750
Tokyo Tower: 118.100
Tokyo Tower: 118.575
Tokyo Tower: 118.725
Tokyo Tower: 124.350

RJTT Departure (Archives)
Tokyo, Japan

Feed Status: UP
Listen in your browser - HTML5 player(in browser, HTML5)
Click here to listen with your own player(launches your MP3 player)

RJTT 241830Z 36012KT 9999 -RA FEW010 SCT060 BKN120 07/04 Q1022 NOSIG

RJTT Flight Activity (Flightaware)

Listeners: 1 out of 1429 total

Tokyo Departure: 120.800
Tokyo Departure: 126.000

RJTT Tokyo Control (Archives)
Tokyo, Japan

Feed Status: UP
Listen in your browser - HTML5 player(in browser, HTML5)
Click here to listen with your own player(launches your MP3 player)

RJTT 241830Z 36012KT 9999 -RA FEW010 SCT060 BKN120 07/04 Q1022 NOSIG

RJTT Flight Activity (Flightaware)

Listeners: 16 out of 1429 total

Tokyo Control: 133.700
Tokyo Control: 125.900
Tokyo Control: 120.500

RJTT Twr/TCA (Archives)
Tokyo, Japan

Feed Status: UP
Listen in your browser - HTML5 player(in browser, HTML5)
Click here to listen with your own player(launches your MP3 player)

RJTT 241830Z 36012KT 9999 -RA FEW010 SCT060 BKN120 07/04 Q1022 NOSIG

RJTT Flight Activity (Flightaware)

Listeners: 1 out of 1429 total

Tokyo TCA: 124.750
Tokyo Tower: 118.100
Tokyo Tower: 118.575
Tokyo Tower: 118.725
Tokyo Tower: 124.350

RJTY Approach (Archives)
Tokyo, Japan

Feed Status: UP
Listen in your browser - HTML5 player(in browser, HTML5)
Click here to listen with your own player(launches your MP3 player)

RJTY 201856Z AUTO 00000KT 10SM CLR M02/M07 A3037 RMK AO2 SLP296 T10221068 FZRANO $

RJTY Flight Activity (Flightaware)

Listeners: 0 out of 1429 total

Yokota Approach: 118.300
Yokota APproach: 123.800
Yokota Approach: 120.700

RJTY ATIS (Archives)
Tokyo, Japan

Feed Status: UP
Listen in your browser - HTML5 player(in browser, HTML5)
Click here to listen with your own player(launches your MP3 player)

RJTY 201856Z AUTO 00000KT 10SM CLR M02/M07 A3037 RMK AO2 SLP296 T10221068 FZRANO $

RJTY Flight Activity (Flightaware)

Listeners: 0 out of 1429 total

Yokota ATIS: 126.400

RJTY Ground (Archives)
Tokyo, Japan

Feed Status: UP
Listen in your browser - HTML5 player(in browser, HTML5)
Click here to listen with your own player(launches your MP3 player)

RJTY 201856Z AUTO 00000KT 10SM CLR M02/M07 A3037 RMK AO2 SLP296 T10221068 FZRANO $

RJTY Flight Activity (Flightaware)

Listeners: 0 out of 1429 total

Yokota Ground: 133.200

RJTY Ground/Tower (Archives)
Tokyo, Japan

Feed Status: UP
Listen in your browser - HTML5 player(in browser, HTML5)
Click here to listen with your own player(launches your MP3 player)

RJTY 201856Z AUTO 00000KT 10SM CLR M02/M07 A3037 RMK AO2 SLP296 T10221068 FZRANO $

RJTY Flight Activity (Flightaware)

Listeners: 0 out of 1429 total

Yokota Ground: 133.200
Yokota Tower: 134.300

RJTY Tower (Archives)
Tokyo, Japan

Feed Status: UP
Listen in your browser - HTML5 player(in browser, HTML5)
Click here to listen with your own player(launches your MP3 player)

RJTY 201856Z AUTO 00000KT 10SM CLR M02/M07 A3037 RMK AO2 SLP296 T10221068 FZRANO $

RJTY Flight Activity (Flightaware)

Listeners: 0 out of 1429 total

Yokota Tower: 134.300

ROAH Gnd/Twr/App (Archives)
Okinawa, Japan

Feed Status: UP
Listen in your browser - HTML5 player(in browser, HTML5)
Click here to listen with your own player(launches your MP3 player)

RODN 201856Z AUTO 11008KT 10SM OVC085 20/16 A3012 RMK AO2 SLP206 T01980158 $

RODN Flight Activity (Flightaware)

Listeners: 3 out of 1429 total


ROAH Naha ACC (Archives)
Okinawa, Japan

Feed Status: UP
Listen in your browser - HTML5 player(in browser, HTML5)
Click here to listen with your own player(launches your MP3 player)

RODN 201856Z AUTO 11008KT 10SM OVC085 20/16 A3012 RMK AO2 SLP206 T01980158 $

RODN Flight Activity (Flightaware)

Listeners: 2 out of 1429 total


RODN Gnd/Twr/App (Archives)
Okinawa, Japan

Feed Status: UP
Listen in your browser - HTML5 player(in browser, HTML5)
Click here to listen with your own player(launches your MP3 player)

RODN 201856Z AUTO 11008KT 10SM OVC085 20/16 A3012 RMK AO2 SLP206 T01980158 $

RODN Flight Activity (Flightaware)

Listeners: 2 out of 1429 total


ROTM Gnd/Twr (Archives)
Okinawa, Japan

Feed Status: UP
Listen in your browser - HTML5 player(in browser, HTML5)
Click here to listen with your own player(launches your MP3 player)

RODN 201856Z AUTO 11008KT 10SM OVC085 20/16 A3012 RMK AO2 SLP206 T01980158 $

RODN Flight Activity (Flightaware)

Listeners: 1 out of 1429 total


UAAA Approach (Archives)
Almaty, Kazakhstan

Feed Status: UP
Listen in your browser - HTML5 player(in browser, HTML5)
Click here to listen with your own player(launches your MP3 player)

UAAA 241830Z 32001MPS 0100 R23R/0400 R23L/0500N FZFG VV001 M07/M08 Q1034 R23R/3///60 R23L/3///50 NOSIG RMK QBB030

UAAA Flight Activity (Flightaware)

Listeners: 0 out of 1429 total

Almaty Approach: 124.800

UAAA Tower (Archives)
Almaty, Kazakhstan

Feed Status: UP
Listen in your browser - HTML5 player(in browser, HTML5)
Click here to listen with your own player(launches your MP3 player)

UAAA 241830Z 32001MPS 0100 R23R/0400 R23L/0500N FZFG VV001 M07/M08 Q1034 R23R/3///60 R23L/3///50 NOSIG RMK QBB030

UAAA Flight Activity (Flightaware)

Listeners: 0 out of 1429 total

Almaty Tower: 119.400

UAAA Tower/Approach (Archives)
Almaty, Kazakhstan

Feed Status: UP
Listen in your browser - HTML5 player(in browser, HTML5)
Click here to listen with your own player(launches your MP3 player)

UAAA 241830Z 32001MPS 0100 R23R/0400 R23L/0500N FZFG VV001 M07/M08 Q1034 R23R/3///60 R23L/3///50 NOSIG RMK QBB030

UAAA Flight Activity (Flightaware)

Listeners: 1 out of 1429 total

Almaty Approach: 124.800
Almaty Tower: 119.400

UNNT Gnd/Twr/App/Radar/Misc (Archives)
Novosibirsk, Russia

Feed Status: UP
Listen in your browser - HTML5 player(in browser, HTML5)
Click here to listen with your own player(launches your MP3 player)

UNNT 241830Z 24004MPS 3300 1500E BR FU NSC M36/M40 Q1043 R25/810160 R34/410350 NOSIG RMK QFE772/1030

UNNT Flight Activity (Flightaware)

Listeners: 5 out of 1429 total

ACC_Novosibirsk-Control [5th military channel]: 128.500
ACC_Novosibirsk-Control [Southeast]: 126.100
ACC_Novosibirsk-Control [West]: 127.000
GPA_Kristallik [Severniy airfield]: 123.425
GPA_Sernisiy [Chkalovskiy airfield]: 124.750
GPA_Tomsk Information 1: 134.500
MIL_3 [3rd military channel]: 130.750
MIL_Larek [Shilovo facility]: 123.750
MIL_Maneken [Chkalovskiy airfield]: 123.550
MIL_Novosibirsk-1 [1st military channel]: 124.000
MIL_Noyabr' 31: 124.900
MIL_Trimaran: 124.500
SP_Air-to-Air: 123.450
SP_Air-to-Air 2: 123.400
SP_Common backup frequency: 129.000
SP_Emergency: 121.500
SP_Emergency 2: 123.100
SP_Flyoff: 124.375
SURF_Boarding: 163.425
SURF_Duty chart: 163.800
SURF_O&D Service: 163.325
SURF_Search & Rescue: 164.000
SURF_Security: 163.750
SURF_Tower surf: 163.650
SURF_Vehicles: 163.850
UNNT_Backup frequency: 127.100
UNNT_Novosibirsk-Approach: 127.500
UNNT_Novosibirsk-Ground: 121.700
UNNT_Novosibirsk-Radar: 122.000
UNNT_Novosibirsk-Tower: 118.500
UNNT_Novosibirsk-Transit: 131.600
UNNT_S7 FOCC: 131.925

UNOO Gnd/Tower/App (Archives)
Omsk, Russia

Feed Status: UP
Listen in your browser - HTML5 player(in browser, HTML5)
Click here to listen with your own player(launches your MP3 player)

UNOO 241830Z 16003MPS 6000 NSC M35/M39 Q1042 R25/810550 NOSIG RMK QFE773

UNOO Flight Activity (Flightaware)

Listeners: 2 out of 1429 total

Aerodrom Kalachevo: 123.300
Aerodrom Marianovka: 123.000
Emergency/Guard: 121.500
Novosibirsk Control (Sector 7): 132.500
Novosibirsk Control (Sector 8): 132.900
Omsk Approach (FL060-FL265): 131.200
Omsk Apron: 118.800
Omsk Start/Radar: 119.000
Omsk Taxiing: 121.700
Omsk Transit: 131.700
UNOS/OMSK-Severny: 124.000

UNTT Gnd/Info/Radar/Control
Tomsk, Russia

Feed Status: DOWN
Offline since: 2021-01-24 15:03:39 UTC

Common Backup Frequency: 129.000
Emergency/Guard: 121.500
Novosibirsk Control (Sector 2): 126.100
Novosibirsk Control (Sector 3): 129.300
Novosibirsk Control (Sector 5): 132.300
Tomsk Ground: 118.800
Tomsk Information 1: 134.500
Tomsk Krug (Radar): 127.300
Tomsk Transit: 131.875
Troynik (Golovino): 122.400

USTR Gnd/Twr/App (Archives)
Tyumen, Russia

Feed Status: UP
Listen in your browser - HTML5 player(in browser, HTML5)
Click here to listen with your own player(launches your MP3 player)

USTR 241830Z 16004MPS 3800 -SN FEW012 OVC016 M24/M27 Q1030 R21/451545 R12/452540 TEMPO 1000 SN VV005

USTR Flight Activity (Flightaware)

Listeners: 0 out of 1429 total

Tyumen Approach: 126.100
Tyumen Control: 132.600
Tyumen Control: 133.600
Tyumen Info (Regional): 133.400
Tyumen Start: 118.200
Tyumen Transit: 131.800

USUU Twr/App/Control (Archives)
Kurgan, Russia

Feed Status: UP
Listen in your browser - HTML5 player(in browser, HTML5)
Click here to listen with your own player(launches your MP3 player)

USUU Flight Activity (Flightaware)

Listeners: 0 out of 1429 total

Aerodromnaya 50: 164.100
Baggage Handling: 164.025
Kurgan Approach: 120.300
Kurgan Tower: 134.300
Kurgan/USUU Transit: 131.700
Kurtamysh: 122.450
Ural Control Sector 4: 119.700
USUL Tower: 129.600

VCBI Director
Colombo, Sri Lanka

Feed Status: DOWN
Offline since: 2021-01-24 10:30:05 UTC

VCBI 241810Z 06004KT CAVOK 24/20 Q1012 NOSIG

Colombo Director: 132.400

VGHS Tower
Dhaka, Bangladesh

Feed Status: DOWN
Offline since: 2021-01-07 17:11:40 UTC

VGHS 241830Z 00000KT 1400 BR NSC 18/14 Q1015 TEMPO S/VIS 1000M

Bangladesh Tower: 118.300

VHHH ATIS
Hong Kong, Hong Kong

Feed Status: DOWN
Offline since: 2020-04-09 19:09:06 UTC

VHHH 241830Z 10013KT 9999 FEW015 SCT028 18/13 Q1017 NOSIG

Hong Kong Arrival ATIS: 128.200

VHHH Clearance Delivery
Hong Kong, Hong Kong

Feed Status: DOWN
Offline since: 2020-04-09 19:09:06 UTC

VHHH 241830Z 10013KT 9999 FEW015 SCT028 18/13 Q1017 NOSIG

Hong Kong Clearance Delivery: 129.900

VHHH Ground
Hong Kong, Hong Kong

Feed Status: DOWN
Offline since: 2020-04-09 19:08:40 UTC

VHHH 241830Z 10013KT 9999 FEW015 SCT028 18/13 Q1017 NOSIG

Hong Kong Ground (North): 121.600
Hong Kong Ground (South): 122.550

VHHH Ground (North)
Hong Kong, Hong Kong

Feed Status: DOWN
Offline since: 2020-04-09 19:09:06 UTC

VHHH 241830Z 10013KT 9999 FEW015 SCT028 18/13 Q1017 NOSIG

Hong Kong Ground (North): 121.600

VHHH Ground (South)
Hong Kong, Hong Kong

Feed Status: DOWN
Offline since: 2020-04-09 19:09:06 UTC

VHHH 241830Z 10013KT 9999 FEW015 SCT028 18/13 Q1017 NOSIG

Hong Kong Ground (South): 122.550

VMMC Tower (Archives)
Taipa, China

Feed Status: UP
Listen in your browser - HTML5 player(in browser, HTML5)
Click here to listen with your own player(launches your MP3 player)

VMMC 241830Z 04005KT 350V080 9999 FEW015 SCT030 18/16 Q1017 NOSIG

VMMC Flight Activity (Flightaware)

Listeners: 4 out of 1429 total

Macau Tower: 118.000

VTBS Approach (East) (Archives)
Bangkok, Thailand

Feed Status: UP
Listen in your browser - HTML5 player(in browser, HTML5)
Click here to listen with your own player(launches your MP3 player)

VTBS 241830Z 21006KT 9000 NSC 25/24 Q1011 NOSIG

VTBS Flight Activity (Flightaware)

Listeners: 0 out of 1429 total

Bangkok Approach (East): 122.350

VTBS Approach (North) (Archives)
Bangkok, Thailand

Feed Status: UP
Listen in your browser - HTML5 player(in browser, HTML5)
Click here to listen with your own player(launches your MP3 player)

VTBS 241830Z 21006KT 9000 NSC 25/24 Q1011 NOSIG

VTBS Flight Activity (Flightaware)

Listeners: 0 out of 1429 total

Bangkok Approach (North): 121.700

VTBS Approach 119.1 (Archives)
Bangkok, Thailand

Feed Status: UP
Listen in your browser - HTML5 player(in browser, HTML5)
Click here to listen with your own player(launches your MP3 player)

VTBS 241830Z 21006KT 9000 NSC 25/24 Q1011 NOSIG

VTBS Flight Activity (Flightaware)

Listeners: 1 out of 1429 total

Bangkok Approach: 119.100

VTBS Approach 119.4 (Archives)
Bangkok, Thailand

Feed Status: UP
Listen in your browser - HTML5 player(in browser, HTML5)
Click here to listen with your own player(launches your MP3 player)

VTBS 241830Z 21006KT 9000 NSC 25/24 Q1011 NOSIG

VTBS Flight Activity (Flightaware)

Listeners: 0 out of 1429 total

Bangkok Approach: 119.400

VTBS Approach 120.3 (Archives)
Bangkok, Thailand

Feed Status: UP
Listen in your browser - HTML5 player(in browser, HTML5)
Click here to listen with your own player(launches your MP3 player)

VTBS 241830Z 21006KT 9000 NSC 25/24 Q1011 NOSIG

VTBS Flight Activity (Flightaware)

Listeners: 0 out of 1429 total

Bangkok Approach: 120.300

VTBS Approach/Arrival (Archives)
Bangkok, Thailand

Feed Status: UP
Listen in your browser - HTML5 player(in browser, HTML5)
Click here to listen with your own player(launches your MP3 player)

VTBS 241830Z 21006KT 9000 NSC 25/24 Q1011 NOSIG

VTBS Flight Activity (Flightaware)

Listeners: 0 out of 1429 total

Bangkok Approach: 124.350
Bangkok Approach: 125.200
Bangkok Approach: 124.700
Bangkok Approach: 126.300
Bangkok Approach: 133.400
Bangkok Arrival (VTBD): 125.500

VTBS Arrival 121.1 (Archives)
Bangkok, Thailand

Feed Status: UP
Listen in your browser - HTML5 player(in browser, HTML5)
Click here to listen with your own player(launches your MP3 player)

VTBS 241830Z 21006KT 9000 NSC 25/24 Q1011 NOSIG

VTBS Flight Activity (Flightaware)

Listeners: 1 out of 1429 total

Bangkok Arrival: 121.100

VTBS ATIS (Archives)
Bangkok, Thailand

Feed Status: UP
Listen in your browser - HTML5 player(in browser, HTML5)
Click here to listen with your own player(launches your MP3 player)

VTBS 241830Z 21006KT 9000 NSC 25/24 Q1011 NOSIG

VTBS Flight Activity (Flightaware)

Listeners: 0 out of 1429 total

Bangkok D-ATIS: 127.650

VTBS Departure (Archives)
Bangkok, Thailand

Feed Status: UP
Listen in your browser - HTML5 player(in browser, HTML5)
Click here to listen with your own player(launches your MP3 player)

VTBS 241830Z 21006KT 9000 NSC 25/24 Q1011 NOSIG

VTBS Flight Activity (Flightaware)

Listeners: 0 out of 1429 total

Bangkok Departure: 119.250

VTBS Ground (All) (Archives)
Bangkok, Thailand

Feed Status: UP
Listen in your browser - HTML5 player(in browser, HTML5)
Click here to listen with your own player(launches your MP3 player)

VTBS 241830Z 21006KT 9000 NSC 25/24 Q1011 NOSIG

VTBS Flight Activity (Flightaware)

Listeners: 0 out of 1429 total

Bangkok Ground (East): 121.650
Bangkok Ground (Main): 121.750
Bangkok Ground (West): 121.950

VTBS Ground (East) (Archives)
Bangkok, Thailand

Feed Status: UP
Listen in your browser - HTML5 player(in browser, HTML5)
Click here to listen with your own player(launches your MP3 player)

VTBS 241830Z 21006KT 9000 NSC 25/24 Q1011 NOSIG

VTBS Flight Activity (Flightaware)

Listeners: 0 out of 1429 total

Bangkok Ground (East): 121.650

VTBS Ground (Main) (Archives)
Bangkok, Thailand

Feed Status: UP
Listen in your browser - HTML5 player(in browser, HTML5)
Click here to listen with your own player(launches your MP3 player)

VTBS 241830Z 21006KT 9000 NSC 25/24 Q1011 NOSIG

VTBS Flight Activity (Flightaware)

Listeners: 0 out of 1429 total

Bangkok Ground (Main): 121.750

VTBS Ground (West) (Archives)
Bangkok, Thailand

Feed Status: UP
Listen in your browser - HTML5 player(in browser, HTML5)
Click here to listen with your own player(launches your MP3 player)

VTBS 241830Z 21006KT 9000 NSC 25/24 Q1011 NOSIG

VTBS Flight Activity (Flightaware)

Listeners: 0 out of 1429 total

Bangkok Ground (West): 121.950

VTBS Tower (Archives)
Bangkok, Thailand

Feed Status: UP
Listen in your browser - HTML5 player(in browser, HTML5)
Click here to listen with your own player(launches your MP3 player)

VTBS 241830Z 21006KT 9000 NSC 25/24 Q1011 NOSIG

VTBS Flight Activity (Flightaware)

Listeners: 0 out of 1429 total

Bangkok Tower (Rwy 01L/19R): 119.000
Bangkok Tower (Rwy 01R/19L): 118.200

VTBS Tower (Rwy 01L/19R) (Archives)
Bangkok, Thailand

Feed Status: UP
Listen in your browser - HTML5 player(in browser, HTML5)
Click here to listen with your own player(launches your MP3 player)

VTBS 241830Z 21006KT 9000 NSC 25/24 Q1011 NOSIG

VTBS Flight Activity (Flightaware)

Listeners: 0 out of 1429 total

Bangkok Tower (Rwy 01L/19R): 119.000

VTBS Tower (Rwy 01R/19L) (Archives)
Bangkok, Thailand

Feed Status: UP
Listen in your browser - HTML5 player(in browser, HTML5)
Click here to listen with your own player(launches your MP3 player)

VTBS 241830Z 21006KT 9000 NSC 25/24 Q1011 NOSIG

VTBS Flight Activity (Flightaware)

Listeners: 0 out of 1429 total

Bangkok Tower (Rwy 01R/19L): 118.200

VTSS Approach (Archives)
Songkhla, Thailand

Feed Status: UP
Listen in your browser - HTML5 player(in browser, HTML5)
Click here to listen with your own player(launches your MP3 player)

VTSS 241830Z 03003KT 270V080 9999 FEW020 25/25 Q1011 NOSIG

VTSS Flight Activity (Flightaware)

Listeners: 0 out of 1429 total

Hat Yai Approach: 126.700

WAHH Approach
Yogyakarta, Indonesia

Feed Status: DOWN
Offline since: 2019-01-09 17:03:03 UTC

Adisutjipto Approach: 123.400

WBKK Gnd/Twr/App
Kota Kinabalu, Malaysia

Feed Status: DOWN
Offline since: 2020-09-16 00:42:06 UTC

WBKK 241830Z 13003KT 9999 FEW014 24/23 Q1010 NOSIG

Kinabalu Director: 119.100
Kinabalu Ground: 121.600
Kinabalu Radar: 126.100
Kinabalu Radar: 132.450
Kinabalu Tower: 118.300

WBKK Gnd/Twr/Radar/Control (Archives)
Kota Kinabalu, Malaysia

Feed Status: UP
Listen in your browser - HTML5 player(in browser, HTML5)
Click here to listen with your own player(launches your MP3 player)

WBKK 241830Z 13003KT 9999 FEW014 24/23 Q1010 NOSIG


Listeners: 1 out of 1429 total

Kinabalu Director: 119.100
Kinabalu Ground: 121.600
Kinabalu Radar: 126.100
Kinabalu Radar: 132.450
Kinabalu Radar: 128.300
Kinabalu Tower: 118.300

WBKS Approach (Archives)
Sandakan, Malaysia

Feed Status: UP
Listen in your browser - HTML5 player(in browser, HTML5)
Click here to listen with your own player(launches your MP3 player)

WBKS 241800Z VRB03KT 9999 FEW015 25/24 Q1009


Listeners: 1 out of 1429 total

Sandakan Approach/Departure: 123.200

WBKS ATIS (Archives)
Sandakan, Malaysia

Feed Status: UP
Listen in your browser - HTML5 player(in browser, HTML5)
Click here to listen with your own player(launches your MP3 player)

WBKS 241800Z VRB03KT 9999 FEW015 25/24 Q1009


Listeners: 0 out of 1429 total

Sandakan ATIS: 128.200

WBKS Emergency/Guard (Archives)
Sandakan, Malaysia

Feed Status: UP
Listen in your browser - HTML5 player(in browser, HTML5)
Click here to listen with your own player(launches your MP3 player)

WBKS 241800Z VRB03KT 9999 FEW015 25/24 Q1009


Listeners: 0 out of 1429 total

Emergency/Guard: 121.500

WBKS Gnd/Twr/App/Guard (Archives)
Sandakan, Malaysia

Feed Status: UP
Listen in your browser - HTML5 player(in browser, HTML5)
Click here to listen with your own player(launches your MP3 player)

WBKS 241800Z VRB03KT 9999 FEW015 25/24 Q1009


Listeners: 0 out of 1429 total

Emergency/Guard: 121.500
Sandakan Approach/Departure: 123.200
Sandakan Ground: 121.900
Sandakan Tower: 122.050

WBKS Ground (Archives)
Sandakan, Malaysia

Feed Status: UP
Listen in your browser - HTML5 player(in browser, HTML5)
Click here to listen with your own player(launches your MP3 player)

WBKS 241800Z VRB03KT 9999 FEW015 25/24 Q1009


Listeners: 0 out of 1429 total

Sandakan Ground: 121.900

WBKS Tower (Archives)
Sandakan, Malaysia

Feed Status: UP
Listen in your browser - HTML5 player(in browser, HTML5)
Click here to listen with your own player(launches your MP3 player)

WBKS 241800Z VRB03KT 9999 FEW015 25/24 Q1009


Listeners: 0 out of 1429 total

Sandakan Tower: 122.050

WMKB Radar (Archives)
Penang, Malaysia

Feed Status: UP
Listen in your browser - HTML5 player(in browser, HTML5)
Click here to listen with your own player(launches your MP3 player)

WMKB 241800Z 01003KT 7000 SCT024 26/25 Q1010 NOSIG


Listeners: 0 out of 1429 total

Butterworth Radar: 125.800

WMKK Control/Info/Radar (Archives)
Sepang, Malaysia

Feed Status: UP
Listen in your browser - HTML5 player(in browser, HTML5)
Click here to listen with your own player(launches your MP3 player)

WMKK 241830Z 04003KT 350V110 9999 FEW017CB 26/23 Q1010 NOSIG


Listeners: 1 out of 1429 total

Lumpur Departure: 120.350
Lumpur Departure: 124.650
Lumpur Departure: 125.100
Lumpur Departure: 135.250
Lumpur Departure: 135.750
Lumpur Information (North): 134.650
Lumpur Information (South): 126.100
Lumpur Radar: 133.700
Lumpur Radar: 132.600
Lumpur Radar: 133.400
Lumpur Radar: 119.450
Lumpur Radar: 125.850
Lumpur Radar: 118.650
Lumpur Radar: 124.200
Lumpur Radar: 121.250
Lumpur Radar: 128.350
Lumpur Radar (East): 134.250
Lumpur Radar (North): 132.800
Lumpur Radar (South): 123.750

WMSA Del/Gnd/Twr/App (Archives)
Subang, Malaysia

Feed Status: UP
Listen in your browser - HTML5 player(in browser, HTML5)
Click here to listen with your own player(launches your MP3 player)

WMSA 241800Z VRB01KT 8000 FEW025 26/24 Q1011


Listeners: 0 out of 1429 total

Lumpur Approach: 119.450
Lumpur Director: 124.200
Subang Clearance Delivery: 126.000
Subang Ground: 121.900
Subang Tower: 118.200

ZBAA Tower (Archives)
Beijing, China

Feed Status: UP
Listen in your browser - HTML5 player(in browser, HTML5)
Click here to listen with your own player(launches your MP3 player)

ZBAA 241830Z 36001MPS 6000 NSC M05/M09 Q1028 NOSIG


Listeners: 5 out of 1429 total

Beijing Tower (Rwy 01/19): 118.600

ZYCY Tower
Chaoyang, China

Feed Status: DOWN
Offline since: 2020-07-23 03:04:23 UTC

ZYCY 140700Z 25002MPS CAVOK 29/16 Q1006 NOSIG

Chaoyang Tower: 118.350